Home > Weather > Pago Pago > Past weeks

Flag for American Samoa Past Weather in Pago Pago, American Samoa — Yesterday and Last 2 Weeks

Now
80 °F

Partly cloudy.


Feels Like: 85 °F
Forecast: 81 / 83 °F
Wind: 18 mph from Southeast

Location: Pago Pago / Int. Airp.

Current Time: Jun 30, 2016 at 1:15:29 AM

Latest Report: Jun 30, 2016 at 12:50 AM


Visibility: 10 mi

Pressure: 29.90 "Hg

Humidity: 81%

Dew Point: 74 °F

Location of Pago PagoLocation

Past Weather in Pago Pago — Graph

°F

Pago Pago Temperature Yesterday

Maximum temperature yesterday: 85 °F (at 1:50 PM)
Minimum temperature yesterday: 80 °F (at 4:50 AM)
Average temperature yesterday: 81 °F

High & Low Weather Summary for the Past Weeks

 TemperatureHumidityPressure
High87 °F (Jun 16, 10:51 AM)100% (Jun 16, 1:57 AM)29.98 "Hg (Jun 16, 1:57 AM)
Low76 °F (Jun 16, 3:52 AM)66% (Jun 24, 12:50 PM)29.80 "Hg (Jun 18, 3:52 PM)
Average81 °F85%29.89 "Hg
* Reported Jun 14 11:50 PM — Jun 29 11:50 PM, Pago Pago, Weather by CustomWeather, © 2016

Note: Actual official high and low records may vary slightly from our data, if they occured in-between our weather recording intervals... More about our weather records

Advertising

Pago Pago Weather History for the Previous 24 Hours

Scroll right to see more
 ConditionsComfort  
Time TempWeatherWind HumidityBarometerVisibility
11:50 PM
Wed, Jun 29
80 °FPartly cloudy.17 mph80%29.91 "Hg10 mi
10:51 PM80 °FPassing clouds.16 mph80%29.91 "Hg10 mi
9:52 PM80 °FPartly cloudy.20 mph77%29.92 "Hg10 mi
7:51 PM80 °FPartly cloudy.21 mph81%29.91 "Hg10 mi
6:50 PM80 °FPassing clouds.17 mph83%29.88 "Hg10 mi
5:50 PM81 °FScattered clouds.16 mph80%29.88 "Hg12 mi
5:00 PM81 °FScattered clouds.17 mph81%29.86 "Hg12 mi
4:50 PM81 °FScattered clouds.17 mph84%29.86 "Hg12 mi
3:50 PM83 °FPartly sunny.20 mph79%29.86 "Hg12 mi
2:51 PM85 °FPassing clouds.17 mph74%29.88 "Hg12 mi
1:50 PM85 °FScattered clouds.20 mph73%29.90 "Hg12 mi
12:50 PM85 °FSunny.20 mph72%29.93 "Hg12 mi
11:52 AM85 °FPassing clouds.22 mph75%29.95 "Hg12 mi
10:50 AM84 °FScattered clouds.22 mph75%29.96 "Hg11 mi
9:50 AM81 °FPartly sunny.20 mph83%29.98 "Hg10 mi
8:50 AM83 °FScattered clouds.21 mph71%29.98 "Hg12 mi
7:50 AM81 °FScattered clouds.22 mph85%29.96 "Hg11 mi
6:50 AM80 °FScattered clouds.21 mph85%29.94 "Hg12 mi
5:51 AM80 °FPassing clouds.20 mph84%29.93 "Hg10 mi
4:50 AM80 °FPartly cloudy.21 mph83%29.91 "Hg10 mi
3:50 AM81 °FPartly cloudy.21 mph84%29.90 "Hg10 mi
2:50 AM80 °FPartly cloudy.21 mph87%29.91 "Hg10 mi
1:50 AM80 °FPartly cloudy.21 mph87%29.93 "Hg10 mi
Weather by CustomWeather, © 2016

See weather overviewHow to use our weather pages